Location: Sternwarte_Laufen
(47.9344°N, 12.9346°E)
Time: 19:54:04

ISS - Pass Details

Date: 18 March 2018
Orbit: 403 x 406 km, 51.6° (Epoch: 23 March)

Event Time Altitude Azimuth Distance (km) Brightness Sun altitude
Exits shadow 05:05:23 23° 251° (WSW) 925 -2.6 -12.5°
Maximum altitude 05:06:26 28° 218° (SW) 805 -2.7 -12.4°
Drops below altitude 10° 05:09:17 10° 157° (SSE) 1,457 -0.9 -11.9°
Sets 05:11:31 0° 145° (SE) 2,312 0.3 -11.5°
